User: anonymous   Login
Location: Sungai Apap
(2.6167°N, 113.3833°E)
Time: 03:39:20
(UTC+00:00)
Language:

deb Ariane - Orbit

View from above orbital plane
View from above orbital plane
View from above satellite
View from above satellite

Ground track
Ground track

The orbit data is extracted from the following two-line orbital elements,

1 25543U 88109K   24194.33202946  .00000016  00000-0  19903-3 0  9996
2 25543   6.5498 145.9698 7172393 241.9529  29.8644  2.30165787220421
Epoch (UTC): 12 July 2024 07:58:07
Eccentricity: 0.7172393
inclination: 6.5498°
perigee height: 473 km
apogee height: 35232 km
right ascension of ascending node: 145.9698°
argument of perigee: 241.9529°
revolutions per day: 2.30165787
mean anomaly at epoch: 29.8644°
orbit number at epoch: 22042

The dashed part of the orbit path shows where the satellite is in the earth's shadow,  

DLR